Voltar ao catálogo

STARLINK-1090

AtivoComunicaçõesVLEO
NORAD 44968·PAYLOAD·🇺🇸 United States

Lançado Jan 7, 2020 de Cape Canaveral Space Force Station

Loading…

Próximas Passagens (próximas 24 horas)

TLE

AtualizadoSource: CelesTrak SupGP

Época: Sep 15, 2026, 01:18 UTC

1 44968C 20001BG  26258.05465278  .00131610  00000+0  14227-2 0  2581
2 44968  53.1408 122.0932 0001248 124.8811 178.9273 15.62899539    18

Acompanhe STARLINK-1090 em tempo real com AllMySat

Download on the App Store